Weather History for KK22 - May, 2013

Change the Weather History Date:

Tuesday, May 7, 2013

  Actual Average (KJKL) Record (KJKL)
Temperature  
Mean Temperature 55 °F 63 °F  
Max Temperature 61 °F 73 °F 90 °F (1986)
Min Temperature 49 °F 53 °F 32 °F (1989)
Degree Days  
Heating Degree Days 10 4  
Month to date heating degree days 32  
Since 1 July heating degree days 4153  
Cooling Degree Days 0 2  
Month to date cooling degree days 14  
Year to date cooling degree days 60  
Growing Degree Days 5 (Base 50)    
Moisture  
Dew Point 54 °F    
Average Humidity 95    
Maximum Humidity 100    
Minimum Humidity 85    
Precipitation  
Precipitation 0.00 in 0.16 in 2.15 in (1984)
Month to date precipitation 1.09  
Year to date precipitation 16.40  
Snow  
Snow 0.00 in 0.00 in 0.00 in (2002)
Month to date snowfall 0.0  
Since 1 July snowfall 23.5  
Snow Depth -    
Sea Level Pressure  
Sea Level Pressure 29.93 in    
Wind  
Wind Speed 1 mph (NW)    
Max Wind Speed 6 mph    
Max Gust Speed -    
Visibility 8 miles    
Events Fog , Rain    
T = Trace of Precipitation, MM = Missing Value Source: NWS Daily Summary

Daily Weather History Graph

Daily Weather History Graph

Search for Another Location

Airport or City:

Trip Planner

Search our weather history database for the weather conditions in past years. The results will help you decide how hot, cold, wet, or windy it might be!

Date:

Astronomy

May. 07, 2013 Rise Set
Actual Time 6:28 AM EDT 8:26 PM EDT
Civil Twilight 5:59 AM EDT 8:55 PM EDT
Nautical Twilight 5:24 AM EDT 9:30 PM EDT
Astronomical Twilight 4:46 AM EDT 10:08 PM EDT
Moon 4:59 AM EDT (5/7) 6:27 PM EDT (5/7)
Length of Visible Light 14h 56m
Length of Day
13h 58m
Waning Crescent, 5% of the Moon is Illuminated
May 7
Waning Crescent
May 9
New
May 18
First Quarter
May 25
Full
May 31
Last Quarter

Hourly Weather History & Observations

Time (EDT) Temp. Dew Point Humidity Pressure Visibility Wind Dir Wind Speed Gust Speed Precip Events Conditions
12:15 AM 53.6 °F 52.0 °F 94% 29.90 in 10.0 mi ESE 3.5 mph - N/A   Scattered Clouds
12:35 AM 52.9 °F 51.8 °F 96% 29.91 in 10.0 mi East 3.5 mph - N/A   Clear
12:55 AM 51.6 °F 50.7 °F 97% 29.91 in 10.0 mi Calm Calm - N/A   Clear
1:15 AM 51.8 °F 51.3 °F 98% 29.91 in 10.0 mi Calm Calm - N/A   Scattered Clouds
1:35 AM 51.4 °F 51.1 °F 99% 29.90 in 10.0 mi Calm Calm - N/A   Scattered Clouds
1:55 AM 50.9 °F 50.5 °F 99% 29.90 in 4.0 mi Calm Calm - N/A   Scattered Clouds
2:15 AM 50.4 °F 50.2 °F 99% 29.90 in 5.0 mi ENE 4.6 mph - N/A   Mostly Cloudy
2:35 AM 49.6 °F 49.5 °F 99% 29.90 in 0.5 mi Calm Calm - N/A Fog Fog
2:55 AM 50.7 °F 50.5 °F 99% 29.90 in 5.0 mi NE 4.6 mph - N/A   Overcast
3:15 AM 51.3 °F 51.3 °F 100% 29.89 in 10.0 mi Calm Calm - N/A   Scattered Clouds
3:35 AM 50.4 °F 50.4 °F 100% 29.90 in 7.0 mi Calm Calm - N/A   Scattered Clouds
3:55 AM 49.8 °F 49.6 °F 99% 29.90 in 2.5 mi Calm Calm - N/A   Clear
4:15 AM 50.0 °F 49.8 °F 99% 29.90 in 1.2 mi Calm Calm - N/A   Scattered Clouds
4:35 AM 49.6 °F 49.6 °F 100% 29.90 in 1.0 mi Calm Calm - N/A   Mostly Cloudy
4:55 AM 50.0 °F 50.0 °F 100% 29.90 in 1.8 mi Calm Calm - N/A   Mostly Cloudy
5:15 AM 50.0 °F 50.0 °F 100% 29.90 in 1.5 mi Calm Calm - N/A   Mostly Cloudy
5:35 AM 50.2 °F 50.2 °F 100% 29.90 in 7.0 mi Calm Calm - N/A   Mostly Cloudy
5:55 AM 50.4 °F 50.4 °F 100% 29.90 in 4.0 mi Calm Calm - N/A   Scattered Clouds
6:15 AM 50.0 °F 50.0 °F 100% 29.91 in 0.8 mi Calm Calm - N/A   Overcast
6:35 AM 50.5 °F 50.5 °F 100% 29.92 in 10.0 mi Calm Calm - N/A   Overcast
6:55 AM 50.7 °F 50.7 °F 100% 29.92 in 10.0 mi Calm Calm - N/A   Overcast
7:15 AM 50.9 °F 50.9 °F 100% 29.92 in 10.0 mi Calm Calm - N/A   Overcast
7:35 AM 51.4 °F 51.4 °F 100% 29.92 in 2.5 mi Calm Calm - N/A   Overcast
7:55 AM 52.3 °F 52.3 °F 100% 29.93 in 5.0 mi Calm Calm - N/A   Overcast
8:15 AM 52.7 °F 52.7 °F 100% 29.93 in 7.0 mi Calm Calm - N/A   Overcast
8:35 AM 53.6 °F 53.2 °F 99% 29.94 in 10.0 mi Calm Calm - N/A   Overcast
8:55 AM 53.6 °F 53.2 °F 99% 29.94 in 10.0 mi Calm Calm - N/A   Overcast
9:15 AM 54.1 °F 53.8 °F 99% 29.95 in 10.0 mi Calm Calm - N/A   Overcast
9:35 AM 54.3 °F 53.8 °F 98% 29.95 in 10.0 mi Calm Calm - N/A   Overcast
9:55 AM 55.0 °F 53.8 °F 96% 29.96 in 10.0 mi Calm Calm - N/A   Overcast
10:15 AM 55.4 °F 53.2 °F 92% 29.96 in 10.0 mi Calm Calm - N/A   Overcast
10:35 AM 56.1 °F 53.4 °F 91% 29.96 in 10.0 mi Calm Calm - N/A   Overcast
10:55 AM 56.3 °F 53.6 °F 91% 29.96 in 10.0 mi Calm Calm - N/A   Overcast
11:15 AM 57.0 °F 54.0 °F 89% 29.97 in 10.0 mi Calm Calm - N/A   Overcast
11:35 AM 56.3 °F 54.1 °F 92% 29.97 in 10.0 mi Calm Calm - N/A   Overcast
11:55 AM 56.3 °F 54.0 °F 92% 29.97 in 10.0 mi West 3.5 mph - N/A   Overcast
12:15 PM 56.5 °F 53.6 °F 90% 29.97 in 10.0 mi Calm Calm - N/A   Overcast
12:35 PM 56.8 °F 54.0 °F 90% 29.97 in 10.0 mi WNW 4.6 mph - N/A   Overcast
12:55 PM 57.2 °F 54.1 °F 89% 29.96 in 10.0 mi NW 4.6 mph - N/A   Overcast
1:15 PM 57.2 °F 54.1 °F 89% 29.96 in 10.0 mi NNW 3.5 mph - N/A   Overcast
1:35 PM 57.4 °F 54.3 °F 90% 29.96 in 10.0 mi NNW 4.6 mph - N/A   Overcast
1:55 PM 57.4 °F 54.7 °F 91% 29.96 in 10.0 mi Calm Calm - N/A   Overcast
2:15 PM 57.6 °F 54.7 °F 90% 29.96 in 10.0 mi Calm Calm - N/A   Overcast
2:35 PM 58.1 °F 54.9 °F 89% 29.95 in 10.0 mi Calm Calm - N/A   Overcast
2:55 PM 59.2 °F 55.2 °F 87% 29.95 in 10.0 mi Calm Calm - N/A   Overcast
3:15 PM 59.7 °F 55.2 °F 85% 29.94 in 10.0 mi Calm Calm - N/A Rain Light Rain
3:35 PM 59.2 °F 56.3 °F 90% 29.94 in 10.0 mi Calm Calm - N/A Rain Light Rain
3:55 PM 60.3 °F 56.5 °F 87% 29.94 in 10.0 mi Calm Calm - N/A Rain Light Rain
4:15 PM 59.4 °F 55.8 °F 88% 29.93 in 10.0 mi Calm Calm - N/A Rain Light Rain
4:35 PM 59.2 °F 56.7 °F 91% 29.93 in 7.0 mi Calm Calm - N/A Rain Light Rain
4:55 PM 59.4 °F 57.2 °F 93% 29.92 in 10.0 mi Calm Calm - N/A Rain Rain
5:15 PM 60.1 °F 57.6 °F 91% 29.91 in 10.0 mi WNW 4.6 mph - N/A Rain Light Rain
5:35 PM 60.8 °F 57.2 °F 88% 29.91 in 10.0 mi WNW 3.5 mph - N/A   Mostly Cloudy
5:55 PM 61.2 °F 57.0 °F 86% 29.91 in 10.0 mi NNW 3.5 mph - N/A   Mostly Cloudy
6:15 PM 60.8 °F 57.0 °F 87% 29.92 in 10.0 mi NNW 5.8 mph - N/A   Mostly Cloudy
6:35 PM 60.8 °F 57.0 °F 87% 29.92 in 10.0 mi Calm Calm - N/A   Overcast
6:55 PM 59.9 °F 56.3 °F 88% 29.92 in 10.0 mi North 3.5 mph - N/A   Overcast
7:15 PM 59.4 °F 55.9 °F 88% 29.92 in 10.0 mi Calm Calm - N/A   Overcast
7:35 PM 59.0 °F 56.3 °F 91% 29.93 in 10.0 mi Calm Calm - N/A   Scattered Clouds
7:55 PM 58.6 °F 56.3 °F 92% 29.94 in 10.0 mi Calm Calm - N/A   Mostly Cloudy
8:15 PM 58.3 °F 56.3 °F 93% 29.94 in 10.0 mi Calm Calm - N/A   Overcast
8:35 PM 57.6 °F 56.3 °F 96% 29.94 in 10.0 mi Calm Calm - N/A   Mostly Cloudy
8:55 PM 56.5 °F 55.8 °F 97% 29.94 in 1.0 mi Calm Calm - N/A   Overcast
9:15 PM 57.2 °F 56.5 °F 97% 29.94 in 10.0 mi Calm Calm - N/A   Overcast
9:35 PM 56.8 °F 56.3 °F 98% 29.94 in 5.0 mi Calm Calm - N/A   Overcast
9:55 PM 56.3 °F 55.9 °F 99% 29.94 in 2.0 mi Calm Calm - N/A   Overcast
10:15 PM 56.3 °F 56.1 °F 99% 29.95 in 1.5 mi Calm Calm - N/A   Overcast
10:35 PM 56.3 °F 55.9 °F 99% 29.94 in 1.8 mi West 3.5 mph - N/A   Overcast
10:55 PM 55.8 °F 55.6 °F 99% 29.95 in 1.2 mi Calm Calm - N/A   Overcast
11:15 PM 55.9 °F 55.8 °F 99% 29.95 in 1.8 mi WNW 3.5 mph - N/A   Overcast
11:35 PM 55.8 °F 55.6 °F 99% 29.95 in 0.2 mi Calm Calm - N/A Fog Fog
11:55 PM 55.4 °F 55.4 °F 100% 29.95 in 0.2 mi Calm Calm - N/A Fog Fog